Dades meteomassalio
Diari Summary for Maig 4, 2017 Units:  Metric    English   Both
« Previous Day
Next Day »
Diari Semanal Mensual Anual Personalitzat
  Maxima: Minima: Mijana:
Temperatura: -17.8 °C -13.6 °C -8.2 °C
Rosada: -17.8 °C -14.5 °C -11.9 °C
Humitat: Humidity % 42 % 66 %
Velocitat del vent: 0 km/h 0 km/h 6.8 km/h
Racha vent: 0 km/h - -
Vent:- - East
Pressio: 0 hPa 34154.6 hPa -
Pluja: 0 mm    
Historical Graphs
 
 
Tabular Data for Maig 4, 2017
Time Temperature Dew Point Pressure Wind Wind Speed Wind Gust Humidity Rainfall Rate (Hourly) solar Conditions
-17.8 °C -17.8 °C 0 hPa Calm     Humidity % 0 mm SolarRadiationWatts/m^2 W/m2 Conditions
00:03 -9.7 °C -12.2 °C 34361.1 hPa Calm     75 % 0 mm 0.0 W/m2 CLR
00:08 -9.8 °C -12.2 °C 34361.1 hPa Calm     75 % 0 mm 0.0 W/m2 CLR
00:10 -9.8 °C -12.2 °C 34361.1 hPa Calm     75 % 0 mm 0.0 W/m2 CLR
00:11 -9.8 °C -12.2 °C 34361.1 hPa Calm     75 % 0 mm 0.0 W/m2 CLR
00:16 -9.8 °C -12.3 °C 34361.1 hPa Calm     75 % 0 mm 0.0 W/m2 CLR
00:21 -9.8 °C -12.1 °C 34347.6 hPa Calm     76 % 0 mm 0.0 W/m2 CLR
00:26 -9.8 °C -12.2 °C 34347.6 hPa Calm     76 % 0 mm 0.0 W/m2 CLR
00:31 -9.9 °C -12.2 °C 34347.6 hPa Calm   0.3 km/h 76 % 0 mm 0.0 W/m2 CLR
00:36 -9.9 °C -12.1 °C 34347.6 hPa Calm     77 % 0 mm 0.0 W/m2 CLR
00:41 -9.9 °C -12.1 °C 34347.6 hPa Calm     77 % 0 mm 0.0 W/m2 CLR
00:46 -9.9 °C -12.2 °C 34337.4 hPa Calm     77 % 0 mm 0.0 W/m2 CLR
00:51 -9.9 °C -12.2 °C 34347.6 hPa Calm     77 % 0 mm 0.0 W/m2 CLR
00:56 -10 °C -12.2 °C 34337.4 hPa Calm     77 % 0 mm 0.0 W/m2 CLR
01:01 -10 °C -12.2 °C 34337.4 hPa Calm     77 % 0 mm 0.0 W/m2 CLR
01:06 -10.1 °C -12.2 °C 34337.4 hPa Calm     77 % 0 mm 0.0 W/m2 CLR
01:11 -10.1 °C -12.3 °C 34347.6 hPa Calm     77 % 0 mm 0.0 W/m2 CLR
01:16 -10.1 °C -12.2 °C 34337.4 hPa Calm     77 % 0 mm 0.0 W/m2 CLR
01:21 -10 °C -12.2 °C 34337.4 hPa Calm     77 % 0 mm 0.0 W/m2 CLR
01:26 -10.1 °C -12.2 °C 34337.4 hPa Calm     77 % 0 mm 0.0 W/m2 CLR
01:31 -10.1 °C -12.3 °C 34337.4 hPa Calm     77 % 0 mm 0.0 W/m2 CLR
01:36 -10.2 °C -12.3 °C 34337.4 hPa Calm     77 % 0 mm 0.0 W/m2 CLR
01:41 -10.2 °C -12.3 °C 34337.4 hPa Calm     78 % 0 mm 0.0 W/m2 CLR
01:46 -10.2 °C -12.3 °C 34337.4 hPa Calm     77 % 0 mm 0.0 W/m2 CLR
01:51 -10.1 °C -12.4 °C 34337.4 hPa Calm     76 % 0 mm 0.0 W/m2 CLR
01:56 -10.1 °C -12.4 °C 34337.4 hPa Calm     76 % 0 mm 0.0 W/m2 CLR
02:01 -10.2 °C -12.6 °C 34337.4 hPa NE 11.9 km/h 11.9 km/h 76 % 0 mm 0.0 W/m2 CLR
02:06 -10.4 °C -12.6 °C 34337.4 hPa NE 17.9 km/h 17.9 km/h 77 % 0 mm 0.0 W/m2 CLR
02:11 -10.4 °C -12.4 °C 34337.4 hPa ENE 15 km/h 15 km/h 78 % 0 mm 0.0 W/m2 CLR
02:16 -10.3 °C -12.6 °C 34337.4 hPa Calm     77 % 0 mm 0.0 W/m2 CLR
02:21 -10.3 °C -12.7 °C 34327.3 hPa Calm     76 % 0 mm 0.0 W/m2 CLR
02:26 -10.3 °C -12.7 °C 34327.3 hPa Calm     76 % 0 mm 0.0 W/m2 CLR
02:31 -10.4 °C -12.6 °C 34327.3 hPa Calm     77 % 0 mm 0.0 W/m2 CLR
02:36 -10.6 °C -12.7 °C 34327.3 hPa Calm     77 % 0 mm 0.0 W/m2 CLR
02:41 -10.7 °C -12.7 °C 34327.3 hPa Calm     78 % 0 mm 0.0 W/m2 CLR
02:46 -10.7 °C -12.7 °C 34327.3 hPa Calm     78 % 0 mm 0.0 W/m2 CLR
02:51 -10.7 °C -12.7 °C 34327.3 hPa Calm     79 % 0 mm 0.0 W/m2 CLR
02:56 -10.8 °C -12.7 °C 34327.3 hPa Calm     79 % 0 mm 0.0 W/m2 CLR
03:01 -10.8 °C -12.7 °C 34327.3 hPa Calm     80 % 0 mm 0.0 W/m2 CLR
03:06 -10.9 °C -12.6 °C 34313.7 hPa Calm     81 % 0 mm 0.0 W/m2 CLR
03:11 -10.9 °C -12.8 °C 34313.7 hPa Calm     80 % 0 mm 0.0 W/m2 CLR
03:17 -11 °C -12.7 °C 34313.7 hPa Calm     81 % 0 mm 0.0 W/m2 CLR
03:22 -11.1 °C -12.7 °C 34303.6 hPa Calm     82 % 0 mm 0.0 W/m2 CLR
03:27 -11.1 °C -12.7 °C 34303.6 hPa Calm     83 % 0 mm 0.0 W/m2 CLR
03:32 -11.1 °C -12.7 °C 34303.6 hPa Calm     83 % 0 mm 0.0 W/m2 CLR
03:37 -11.2 °C -12.7 °C 34303.6 hPa Calm     83 % 0 mm 0.0 W/m2 CLR
03:42 -11.2 °C -12.7 °C 34303.6 hPa Calm     84 % 0 mm 0.0 W/m2 CLR
03:47 -11.2 °C -12.7 °C 34303.6 hPa Calm     84 % 0 mm 0.0 W/m2 CLR
03:52 -11.3 °C -12.9 °C 34303.6 hPa Calm     83 % 0 mm 0.0 W/m2 CLR
03:57 -11.5 °C -13 °C 34303.6 hPa Calm     83 % 0 mm 0.0 W/m2 CLR
04:02 -11.6 °C -13.1 °C 34303.6 hPa Calm     83 % 0 mm 0.0 W/m2 CLR
04:07 -11.6 °C -13.2 °C 34303.6 hPa Calm     83 % 0 mm 0.0 W/m2 CLR
04:12 -11.7 °C -13.2 °C 34313.7 hPa Calm     84 % 0 mm 0.0 W/m2 CLR
04:17 -11.8 °C -13.1 °C 34313.7 hPa Calm     85 % 0 mm 0.0 W/m2 CLR
04:22 -11.8 °C -13.2 °C 34313.7 hPa Calm     85 % 0 mm 0.0 W/m2 CLR
04:27 -11.9 °C -13.2 °C 34313.7 hPa Calm     85 % 0 mm 0.0 W/m2 CLR
04:32 -12 °C -13.3 °C 34313.7 hPa Calm     85 % 0 mm 0.0 W/m2 CLR
04:37 -12.1 °C -13.4 °C 34313.7 hPa Calm     85 % 0 mm 0.0 W/m2 CLR
04:42 -12.1 °C -13.3 °C 34313.7 hPa Calm     86 % 0 mm 0.0 W/m2 CLR
04:47 -12.1 °C -13.4 °C 34313.7 hPa Calm     86 % 0 mm 0.0 W/m2 CLR
04:52 -12.2 °C -13.4 °C 34313.7 hPa Calm     86 % 0 mm 0.0 W/m2 CLR
04:57 -12.3 °C -13.6 °C 34313.7 hPa Calm     85 % 0 mm 0.0 W/m2 CLR
05:02 -12.4 °C -13.7 °C 34313.7 hPa Calm     85 % 0 mm 0.0 W/m2 CLR
05:07 -12.6 °C -13.8 °C 34313.7 hPa Calm     85 % 0 mm 0.0 W/m2 CLR
05:12 -12.6 °C -13.8 °C 34313.7 hPa Calm     86 % 0 mm 0.0 W/m2 CLR
05:17 -12.7 °C -13.9 °C 34303.6 hPa Calm     86 % 0 mm 0.0 W/m2 CLR
05:22 -12.7 °C -14 °C 34303.6 hPa Calm     86 % 0 mm 0.0 W/m2 CLR
05:27 -12.8 °C -14 °C 34303.6 hPa Calm     86 % 0 mm 0.0 W/m2 CLR
05:32 -12.8 °C -14 °C 34303.6 hPa Calm     87 % 0 mm 0.0 W/m2 CLR
05:37 -12.9 °C -14.1 °C 34303.6 hPa Calm     87 % 0 mm 0.0 W/m2 CLR
05:42 -12.9 °C -14.1 °C 34303.6 hPa Calm     87 % 0 mm 0.0 W/m2 CLR
05:47 -13 °C -14.2 °C 34303.6 hPa Calm     87 % 0 mm 0.0 W/m2 CLR
05:52 -13.1 °C -14.1 °C 34303.6 hPa Calm     88 % 0 mm 0.0 W/m2 CLR
05:57 -13.1 °C -14.2 °C 34303.6 hPa Calm     88 % 0 mm 0.0 W/m2 CLR
06:02 -13.2 °C -14.2 °C 34303.6 hPa Calm     88 % 0 mm 0.0 W/m2 CLR
06:07 -13.2 °C -14.2 °C 34303.6 hPa Calm     88 % 0 mm 0.0 W/m2 CLR
06:12 -13.2 °C -14.3 °C 34303.6 hPa Calm     88 % 0 mm 0.0 W/m2 CLR
06:17 -13.3 °C -14.3 °C 34303.6 hPa Calm     88 % 0 mm 0.0 W/m2 CLR
06:22 -13.3 °C -14.3 °C 34303.6 hPa Calm     89 % 0 mm 0.0 W/m2 CLR
06:27 -13.3 °C -14.3 °C 34303.6 hPa Calm     89 % 0 mm 0.0 W/m2 CLR
06:32 -13.3 °C -14.3 °C 34303.6 hPa Calm     89 % 0 mm 0.0 W/m2 CLR
06:37 -13.4 °C -14.3 °C 34303.6 hPa Calm     89 % 0 mm 0.0 W/m2 CLR
06:42 -13.4 °C -14.5 °C 34303.6 hPa Calm     88 % 0 mm 0.0 W/m2 CLR
06:47 -13.4 °C -14.4 °C 34293.4 hPa Calm     89 % 0 mm 0.0 W/m2 OVC
06:52 -13.5 °C -14.4 °C 34293.4 hPa Calm     89 % 0 mm 5.0 W/m2 OVC
06:57 -13.5 °C -14.5 °C 34303.6 hPa Calm     89 % 0 mm 9.0 W/m2 BKN
07:02 -13.6 °C -14.5 °C 34303.6 hPa Calm     89 % 0 mm 14.0 W/m2 BKN
07:07 -13.6 °C -14.5 °C 34303.6 hPa Calm     89 % 0 mm 18.0 W/m2 BKN
07:12 -13.6 °C -14.5 °C 34303.6 hPa Calm     89 % 0 mm 21.0 W/m2 BKN
07:17 -13.6 °C -14.5 °C 34303.6 hPa Calm     89 % 0 mm 25.0 W/m2 BKN
07:22 -13.6 °C -14.5 °C 34303.6 hPa Calm     89 % 0 mm 30.0 W/m2 BKN
07:27 -13.5 °C -14.5 °C 34303.6 hPa Calm     89 % 0 mm 37.0 W/m2 BKN
07:32 -13.4 °C -14.4 °C 34303.6 hPa Calm     89 % 0 mm 47.0 W/m2 SCT
07:33 -13.4 °C -14.4 °C 34303.6 hPa Calm     89 % 0 mm 47.0 W/m2 SCT
07:38 -13.4 °C -14.3 °C 34303.6 hPa Calm     89 % 0 mm 47.0 W/m2 SCT
07:43 -13.2 °C -14.2 °C 34303.6 hPa Calm     89 % 0 mm 70.0 W/m2 SCT
07:48 -13.1 °C -14.1 °C 34303.6 hPa Calm     88 % 0 mm 76.0 W/m2 FEW
07:53 -12.9 °C -14 °C 34303.6 hPa Calm     88 % 0 mm 88.0 W/m2 FEW
07:58 -12.8 °C -13.9 °C 34303.6 hPa Calm     87 % 0 mm 104.0 W/m2 CLR
08:03 -12.7 °C -13.8 °C 34303.6 hPa Calm     87 % 0 mm 118.0 W/m2 CLR
08:08 -12.4 °C -13.7 °C 34303.6 hPa Calm     86 % 0 mm 137.0 W/m2 CLR
08:13 -12.3 °C -13.6 °C 34303.6 hPa Calm     85 % 0 mm 153.0 W/m2 CLR
08:18 -12.1 °C -13.6 °C 34303.6 hPa Calm     84 % 0 mm 167.0 W/m2 CLR
08:23 -12 °C -13.5 °C 34303.6 hPa Calm     83 % 0 mm 186.0 W/m2 CLR
08:28 -11.8 °C -13.4 °C 34303.6 hPa Calm     82 % 0 mm 207.0 W/m2 CLR
08:33 -11.6 °C -13.2 °C 34303.6 hPa Calm     82 % 0 mm 223.0 W/m2 CLR
08:38 -11.3 °C -13.2 °C 34303.6 hPa Calm     80 % 0 mm 241.0 W/m2 CLR
08:43 -11.2 °C -13.2 °C 34293.4 hPa Calm     79 % 0 mm 257.0 W/m2 CLR
08:48 -11 °C -13.1 °C 34293.4 hPa Calm     78 % 0 mm 271.0 W/m2 CLR
08:53 -10.8 °C -12.9 °C 34293.4 hPa Calm     78 % 0 mm 290.0 W/m2 CLR
08:58 -10.6 °C -12.9 °C 34293.4 hPa Calm     76 % 0 mm 308.0 W/m2 CLR
09:03 -10.4 °C -12.8 °C 34293.4 hPa Calm     76 % 0 mm 294.0 W/m2 CLR
09:08 -10.3 °C -12.9 °C 34279.9 hPa Calm     74 % 0 mm 334.0 W/m2 CLR
09:13 -10.2 °C -12.7 °C 34279.9 hPa Calm     74 % 0 mm 355.0 W/m2 CLR
09:18 -10 °C -12.6 °C 34279.9 hPa Calm     74 % 0 mm 357.0 W/m2 CLR
09:23 -9.8 °C -12.3 °C 34279.9 hPa Calm     74 % 0 mm 388.0 W/m2 CLR
09:28 -9.6 °C -12.3 °C 34279.9 hPa Calm     72 % 0 mm 323.0 W/m2 CLR
09:33 -9.3 °C -12.1 °C 34279.9 hPa Calm     72 % 0 mm 137.0 W/m2 CLR
09:38 -9.2 °C -12.3 °C 34279.9 hPa Calm     70 % 0 mm 439.0 W/m2 CLR
09:43 -9.1 °C -12.1 °C 34269.7 hPa Calm     70 % 0 mm 434.0 W/m2 CLR
09:48 -9.1 °C -12.1 °C 34269.7 hPa Calm     70 % 0 mm 366.0 W/m2 CLR
09:53 -8.9 °C -12.1 °C 34269.7 hPa Calm     69 % 0 mm 483.0 W/m2 CLR
09:58 -8.8 °C -12.4 °C 34269.7 hPa Calm     65 % 0 mm 499.0 W/m2 CLR
10:03 -8.6 °C -12.4 °C 34269.7 hPa Calm     63 % 0 mm 515.0 W/m2 CLR
10:08 -8.4 °C -12.8 °C 34269.7 hPa Calm     59 % 0 mm 533.0 W/m2 CLR
10:13 -8.3 °C -12.3 °C 34256.2 hPa Calm     62 % 0 mm 541.0 W/m2 CLR
10:18 -8.1 °C -12.2 °C 34256.2 hPa Calm     62 % 0 mm 559.0 W/m2 CLR
10:23 -8 °C -11.9 °C 34269.7 hPa Calm     63 % 0 mm 575.0 W/m2 CLR
10:28 -7.9 °C -12 °C 34269.7 hPa Calm     62 % 0 mm 589.0 W/m2 CLR
10:33 -7.9 °C -11.8 °C 34269.7 hPa ENE 9 km/h 9 km/h 63 % 0 mm 605.0 W/m2 CLR
10:38 -7.7 °C -11.6 °C 34256.2 hPa ENE 15 km/h 15 km/h 63 % 0 mm 626.0 W/m2 CLR
10:43 -7.6 °C -11.8 °C 34256.2 hPa NE 9 km/h   61 % 0 mm 568.0 W/m2 CLR
10:48 -7.4 °C -11.9 °C 34256.2 hPa North 11.9 km/h 11.9 km/h 60 % 0 mm 654.0 W/m2 CLR
10:53 -7.3 °C -11.6 °C 34256.2 hPa ENE 10.3 km/h 10.3 km/h 61 % 0 mm 680.0 W/m2 CLR
10:58 -7.3 °C -11.7 °C 34269.7 hPa ENE 9 km/h 9 km/h 60 % 0 mm 693.0 W/m2 CLR
11:03 -7.1 °C -11.5 °C 34256.2 hPa ENE 7.7 km/h 7.7 km/h 60 % 0 mm 585.0 W/m2 CLR
11:08 -7.1 °C -11.6 °C 34256.2 hPa East 17.9 km/h 17.9 km/h 59 % 0 mm 689.0 W/m2 CLR
11:13 -7 °C -11.7 °C 34256.2 hPa NNE 11.9 km/h 11.9 km/h 58 % 0 mm 752.0 W/m2 CLR
11:18 -7 °C -12 °C 34256.2 hPa ENE 15 km/h 15 km/h 56 % 0 mm 698.0 W/m2 CLR
11:23 -7.1 °C -11.9 °C 34256.2 hPa NNE 15 km/h 15 km/h 57 % 0 mm 592.0 W/m2 CLR
11:28 -7 °C -12 °C 34256.2 hPa NE 9 km/h 9 km/h 56 % 0 mm 650.0 W/m2 CLR
11:34 -6.8 °C -12 °C 34256.2 hPa NNE 17.9 km/h 17.9 km/h 55 % 0 mm 758.0 W/m2 CLR
11:39 -6.7 °C -12.2 °C 34256.2 hPa NE 12.9 km/h 12.9 km/h 53 % 0 mm 789.0 W/m2 CLR
11:44 -6.6 °C -11.9 °C 34256.2 hPa NE 20.9 km/h 20.9 km/h 54 % 0 mm 795.0 W/m2 CLR
11:49 -6.4 °C -11.9 °C 34256.2 hPa NE 20.9 km/h 20.9 km/h 53 % 0 mm 758.0 W/m2 CLR
11:54 -6.3 °C -12 °C 34256.2 hPa ENE 15 km/h 15 km/h 52 % 0 mm 796.0 W/m2 CLR
11:59 -6.2 °C -11.9 °C 34246 hPa NE 26.9 km/h 26.9 km/h 52 % 0 mm 812.0 W/m2 CLR
12:04 -6.1 °C -11.8 °C 34256.2 hPa NNE 23.8 km/h 23.8 km/h 52 % 0 mm 807.0 W/m2 CLR
12:09 -6.1 °C -11.9 °C 34246 hPa North 15 km/h 15 km/h 51 % 0 mm 800.0 W/m2 CLR
12:14 -5.9 °C -11.7 °C 34246 hPa Calm     52 % 0 mm 816.0 W/m2 CLR
12:19 -5.8 °C -11.6 °C 34246 hPa NNE 15 km/h 15 km/h 51 % 0 mm 830.0 W/m2 CLR
12:24 -5.7 °C -11.6 °C 34235.8 hPa ENE 11.9 km/h 11.9 km/h 51 % 0 mm 853.0 W/m2 CLR
12:29 -5.5 °C -11.4 °C 34235.8 hPa ENE 9 km/h 9 km/h 51 % 0 mm 856.0 W/m2 CLR
12:34 -5.4 °C -11.5 °C 34235.8 hPa NE 26.9 km/h 26.9 km/h 50 % 0 mm 854.0 W/m2 CLR
12:39 -5.4 °C -11.4 °C 34235.8 hPa NE 17.9 km/h 17.9 km/h 50 % 0 mm 865.0 W/m2 CLR
12:44 -5.3 °C -11.3 °C 34235.8 hPa ENE 15 km/h 15 km/h 50 % 0 mm 870.0 W/m2 CLR
12:49 -5.2 °C -11.4 °C 34222.3 hPa ESE 17.9 km/h 17.9 km/h 49 % 0 mm 882.0 W/m2 CLR
12:54 -5.1 °C -11.3 °C 34235.8 hPa NE 23.8 km/h 23.8 km/h 49 % 0 mm 874.0 W/m2 CLR
12:59 -5 °C -11.4 °C 34222.3 hPa ENE 11.9 km/h 11.9 km/h 48 % 0 mm 884.0 W/m2 CLR
13:04 -4.9 °C -11.3 °C 34222.3 hPa East 6 km/h 6 km/h 48 % 0 mm 888.0 W/m2 CLR
13:09 -4.8 °C -11.4 °C 34222.3 hPa East 6 km/h 6 km/h 47 % 0 mm 812.0 W/m2 CLR
13:14 -4.7 °C -11.3 °C 34222.3 hPa ENE 9 km/h 9 km/h 47 % 0 mm 893.0 W/m2 CLR
13:19 -4.6 °C -11.2 °C 34212.1 hPa NNE 20.9 km/h 20.9 km/h 47 % 0 mm 893.0 W/m2 CLR
13:24 -4.5 °C -11.3 °C 34212.1 hPa ENE 9 km/h 9 km/h 46 % 0 mm 900.0 W/m2 CLR
13:29 -4.4 °C -11.3 °C 34212.1 hPa ENE 9 km/h 9 km/h 46 % 0 mm 902.0 W/m2 CLR
13:34 -4.4 °C -11.3 °C 34212.1 hPa ENE 26.9 km/h 26.9 km/h 46 % 0 mm 907.0 W/m2 CLR
13:39 -4.5 °C -11.6 °C 34198.6 hPa SE 15 km/h 15 km/h 45 % 0 mm 909.0 W/m2 CLR
13:44 -4.6 °C -11.5 °C 34198.6 hPa East 15 km/h 15 km/h 46 % 0 mm 907.0 W/m2 CLR
13:49 -4.6 °C -11.3 °C 34188.4 hPa NE 17.9 km/h 17.9 km/h 47 % 0 mm 909.0 W/m2 CLR
13:54 -4.4 °C -11.1 °C 34188.4 hPa ENE 20.9 km/h 20.9 km/h 47 % 0 mm 907.0 W/m2 CLR
13:59 -4.3 °C -11.3 °C 34188.4 hPa East 15 km/h 15 km/h 45 % 0 mm 909.0 W/m2 CLR
14:04 -4.2 °C -11.1 °C 34188.4 hPa ENE 15 km/h 15 km/h 46 % 0 mm 909.0 W/m2 CLR
14:09 -4.3 °C -11.3 °C 34188.4 hPa ENE 20.9 km/h 20.9 km/h 45 % 0 mm 909.0 W/m2 CLR
14:14 -4.2 °C -11.3 °C 34188.4 hPa Calm     45 % 0 mm 904.0 W/m2 CLR
14:19 -3.9 °C -10.8 °C 34188.4 hPa ENE 23.3 km/h 23.3 km/h 46 % 0 mm 909.0 W/m2 CLR
14:24 -3.8 °C -11.1 °C 34178.3 hPa East 3.1 km/h   44 % 0 mm 907.0 W/m2 CLR
14:29 -3.7 °C -11.2 °C 34178.3 hPa East 29.8 km/h 29.8 km/h 43 % 0 mm 907.0 W/m2 CLR
14:34 -3.9 °C -11.2 °C 34178.3 hPa NNE 9 km/h 9 km/h 44 % 0 mm 902.0 W/m2 CLR
14:39 -3.7 °C -11 °C 34178.3 hPa East 20.9 km/h 20.9 km/h 44 % 0 mm 904.0 W/m2 CLR
14:44 -3.8 °C -11.1 °C 34178.3 hPa ESE 20.9 km/h 20.9 km/h 44 % 0 mm 907.0 W/m2 CLR
14:49 -3.7 °C -11 °C 34178.3 hPa ENE 9 km/h 9 km/h 44 % 0 mm 904.0 W/m2 CLR
14:54 -3.6 °C -11.1 °C 34178.3 hPa ESE 25.9 km/h 25.9 km/h 43 % 0 mm 809.0 W/m2 CLR
14:59 -3.7 °C -11.2 °C 34178.3 hPa NE 6 km/h   43 % 0 mm 902.0 W/m2 CLR
15:04 -3.6 °C -11.3 °C 34178.3 hPa East 20.9 km/h 20.9 km/h 42 % 0 mm 918.0 W/m2 CLR
15:09 -3.6 °C -11.1 °C 34178.3 hPa SE 23.8 km/h 23.8 km/h 43 % 0 mm 928.0 W/m2 CLR
15:14 -3.5 °C -11 °C 34164.7 hPa East 9 km/h 9 km/h 43 % 0 mm 893.0 W/m2 CLR
15:19 -3.3 °C -10.8 °C 34164.7 hPa ENE 20.9 km/h 20.9 km/h 43 % 0 mm 875.0 W/m2 CLR
15:24 -3.2 °C -10.7 °C 34164.7 hPa NE 26.9 km/h 26.9 km/h 43 % 0 mm 865.0 W/m2 CLR
15:29 -3.2 °C -10.7 °C 34164.7 hPa ENE 23.8 km/h 23.8 km/h 43 % 0 mm 830.0 W/m2 CLR
15:34 -3.2 °C -10.9 °C 34164.7 hPa ENE 31.1 km/h 31.1 km/h 42 % 0 mm 840.0 W/m2 CLR
15:39 -3.2 °C -10.7 °C 34164.7 hPa ENE 15 km/h 15 km/h 43 % 0 mm 798.0 W/m2 CLR
15:44 -3.3 °C -10.7 °C 34164.7 hPa ESE 20.9 km/h 20.9 km/h 44 % 0 mm 733.0 W/m2 CLR
15:49 -3.5 °C -10.6 °C 34164.7 hPa ESE 17.9 km/h 17.9 km/h 45 % 0 mm 689.0 W/m2 CLR
15:54 -3.4 °C -10.5 °C 34164.7 hPa ESE 17.9 km/h 17.9 km/h 45 % 0 mm 809.0 W/m2 CLR
15:59 -3.3 °C -10.7 °C 34164.7 hPa East 15 km/h 15 km/h 44 % 0 mm 721.0 W/m2 CLR
16:04 -3.4 °C -10.6 °C 34164.7 hPa ENE 17.9 km/h 17.9 km/h 45 % 0 mm 812.0 W/m2 CLR
16:09 -3.4 °C -10.3 °C 34154.6 hPa NE 17.9 km/h 17.9 km/h 46 % 0 mm 728.0 W/m2 CLR
16:14 -3.3 °C -10.6 °C 34154.6 hPa East 26.9 km/h 26.9 km/h 44 % 0 mm 773.0 W/m2 CLR
16:19 -3.2 °C -10.5 °C 34154.6 hPa ENE 23.8 km/h 23.8 km/h 44 % 0 mm 756.0 W/m2 CLR
16:24 -3.1 °C -10.7 °C 34154.6 hPa ESE 20.9 km/h 20.9 km/h 43 % 0 mm 724.0 W/m2 CLR
16:29 -3.2 °C -10.4 °C 34154.6 hPa ENE 23.8 km/h 23.8 km/h 45 % 0 mm 663.0 W/m2 CLR
16:34 -3.2 °C -10.4 °C 34154.6 hPa ENE 23.8 km/h 23.8 km/h 45 % 0 mm 608.0 W/m2 CLR
16:40 -3.3 °C -10.7 °C 34154.6 hPa East 9 km/h 9 km/h 44 % 0 mm 649.0 W/m2 CLR
16:45 -3.2 °C -10.6 °C 34154.6 hPa East 12.9 km/h 12.9 km/h 44 % 0 mm 684.0 W/m2 CLR
16:50 -3.2 °C -10.5 °C 34154.6 hPa ENE 20.8 km/h 20.8 km/h 44 % 0 mm 698.0 W/m2 CLR
16:55 -3.2 °C -10.7 °C 34154.6 hPa ESE 15 km/h 15 km/h 43 % 0 mm 712.0 W/m2 CLR
17:00 -3.2 °C -10.8 °C 34154.6 hPa ENE 11.9 km/h 11.9 km/h 43 % 0 mm 643.0 W/m2 CLR
17:05 -3.3 °C -10.7 °C 34154.6 hPa ESE 29.8 km/h 29.8 km/h 44 % 0 mm 707.0 W/m2 CLR
17:10 -3.4 °C -10.7 °C 34154.6 hPa ESE 29.8 km/h 29.8 km/h 44 % 0 mm 647.0 W/m2 CLR
17:15 -3.6 °C -10.9 °C 34154.6 hPa East 17.9 km/h 17.9 km/h 44 % 0 mm 376.0 W/m2 CLR
17:20 -3.7 °C -10.6 °C 34154.6 hPa ESE 20.9 km/h 20.9 km/h 46 % 0 mm 364.0 W/m2 CLR
17:25 -3.7 °C -10.6 °C 34154.6 hPa ESE 18.2 km/h 18.7 km/h 46 % 0 mm 394.0 W/m2 CLR
17:30 -3.8 °C -10.7 °C 34154.6 hPa East 23.8 km/h 23.8 km/h 46 % 0 mm 396.0 W/m2 CLR
17:35 -3.9 °C -10.6 °C 34154.6 hPa East 23.8 km/h 23.8 km/h 47 % 0 mm 455.0 W/m2 CLR
17:40 -3.9 °C -10.7 °C 34154.6 hPa ENE 15 km/h 15 km/h 47 % 0 mm 313.0 W/m2 CLR
17:45 -4 °C -10.7 °C 34154.6 hPa East 15 km/h 15 km/h 47 % 0 mm 278.0 W/m2 CLR
17:50 -4.1 °C -10.7 °C 34164.7 hPa East 15 km/h 15 km/h 47 % 0 mm 253.0 W/m2 CLR
17:55 -4.1 °C -10.4 °C 34164.7 hPa ENE 28.5 km/h 28.5 km/h 49 % 0 mm 666.0 W/m2 CLR
18:00 -3.9 °C -10.4 °C 34164.7 hPa ESE 17.9 km/h 17.9 km/h 48 % 0 mm 671.0 W/m2 CLR
18:05 -3.9 °C -10.3 °C 34164.7 hPa ESE 26.9 km/h 26.9 km/h 49 % 0 mm 613.0 W/m2 CLR
18:10 -4.1 °C -10.5 °C 34164.7 hPa East 20.9 km/h 20.9 km/h 49 % 0 mm 594.0 W/m2 CLR
18:15 -4.2 °C -10.5 °C 34164.7 hPa East 17.9 km/h 17.9 km/h 49 % 0 mm 466.0 W/m2 CLR
18:20 -4.3 °C -10.3 °C 34178.3 hPa ESE 15 km/h 15 km/h 51 % 0 mm 309.0 W/m2 CLR
18:25 -4.4 °C -10.2 °C 34178.3 hPa ESE 12.9 km/h 12.9 km/h 52 % 0 mm 246.0 W/m2 CLR
18:30 -4.6 °C -10.4 °C 34178.3 hPa ESE 11.9 km/h 11.9 km/h 52 % 0 mm 244.0 W/m2 CLR
18:35 -4.7 °C -10.5 °C 34178.3 hPa ESE 15 km/h 15 km/h 52 % 0 mm 306.0 W/m2 CLR
18:40 -4.8 °C -10.6 °C 34178.3 hPa SE 17.9 km/h 17.9 km/h 52 % 0 mm 239.0 W/m2 CLR
18:45 -4.9 °C -10.6 °C 34178.3 hPa ESE 18.2 km/h 18.2 km/h 53 % 0 mm 207.0 W/m2 CLR
18:50 -5.1 °C -10.5 °C 34178.3 hPa East 17.9 km/h 17.9 km/h 54 % 0 mm 223.0 W/m2 CLR
18:55 -5.2 °C -10.5 °C 34178.3 hPa ESE 20.9 km/h 20.9 km/h 55 % 0 mm 211.0 W/m2 CLR
19:00 -5.4 °C -10.4 °C 34178.3 hPa Calm     57 % 0 mm 178.0 W/m2 CLR
19:05 -5.6 °C -10.4 °C 34178.3 hPa ENE 15 km/h 15 km/h 58 % 0 mm 151.0 W/m2 CLR
19:10 -5.7 °C -10.3 °C 34164.7 hPa ENE 9 km/h 9 km/h 59 % 0 mm 128.0 W/m2 CLR
19:15 -5.7 °C -10.4 °C 34164.7 hPa East 3.1 km/h 3.1 km/h 58 % 0 mm 120.0 W/m2 CLR
19:20 -5.7 °C -10.4 °C 34164.7 hPa ESE 9 km/h 9 km/h 58 % 0 mm 111.0 W/m2 CLR
19:21 -5.7 °C -10.4 °C 34164.7 hPa East 9 km/h 9 km/h 58 % 0 mm 107.0 W/m2 CLR
19:26 -5.7 °C -10.5 °C 34164.7 hPa East 7.7 km/h 7.7 km/h 58 % 0 mm 97.0 W/m2 CLR
19:31 -5.7 °C -10.5 °C 34164.7 hPa East 12.9 km/h 12.9 km/h 58 % 0 mm 84.0 W/m2 CLR
19:37 -5.8 °C -10.4 °C 34164.7 hPa East 17.9 km/h 17.9 km/h 59 % 0 mm 70.0 W/m2 CLR
19:42 -5.9 °C -10.6 °C 34164.7 hPa ESE 15.6 km/h 15.6 km/h 59 % 0 mm 62.0 W/m2 FEW
19:47 -6 °C -10.5 °C 34164.7 hPa East 15 km/h 15 km/h 60 % 0 mm 60.0 W/m2 SCT
19:52 -6.1 °C -10.6 °C 34164.7 hPa East 11.9 km/h 11.9 km/h 60 % 0 mm 56.0 W/m2 SCT
19:57 -6.2 °C -10.6 °C 34164.7 hPa Calm     60 % 0 mm 53.0 W/m2 SCT
20:02 -6.2 °C -10.7 °C 34178.3 hPa Calm     60 % 0 mm 46.0 W/m2 SCT
20:07 -6.2 °C -10.5 °C 34178.3 hPa Calm     61 % 0 mm 39.0 W/m2 BKN
20:12 -6.3 °C -10.6 °C 34178.3 hPa Calm     61 % 0 mm 33.0 W/m2 BKN
20:17 -6.3 °C -10.7 °C 34178.3 hPa Calm     61 % 0 mm 28.0 W/m2 BKN
20:22 -6.4 °C -10.6 °C 34178.3 hPa Calm     62 % 0 mm 26.0 W/m2 BKN
20:27 -6.5 °C -10.5 °C 34188.4 hPa Calm     63 % 0 mm 23.0 W/m2 BKN
20:32 -6.6 °C -10.5 °C 34188.4 hPa Calm     64 % 0 mm 19.0 W/m2 BKN
20:37 -6.8 °C -10.5 °C 34188.4 hPa Calm     65 % 0 mm 14.0 W/m2 BKN
20:42 -6.8 °C -10.6 °C 34188.4 hPa Calm     65 % 0 mm 9.0 W/m2 BKN
20:47 -6.9 °C -10.7 °C 34188.4 hPa ESE 6 km/h   65 % 0 mm 5.0 W/m2 OVC
20:52 -7 °C -10.8 °C 34188.4 hPa Calm     65 % 0 mm 0.0 W/m2 OVC
20:57 -7.1 °C -10.8 °C 34188.4 hPa Calm     65 % 0 mm 0.0 W/m2 OVC
21:02 -7.1 °C -10.7 °C 34188.4 hPa Calm     66 % 0 mm 0.0 W/m2 CLR
21:07 -7.1 °C -10.7 °C 34188.4 hPa Calm     66 % 0 mm 0.0 W/m2 CLR
21:12 -7.2 °C -10.8 °C 34188.4 hPa Calm     66 % 0 mm 0.0 W/m2 CLR
21:17 -7.2 °C -10.8 °C 34198.6 hPa Calm     66 % 0 mm 0.0 W/m2 CLR
21:22 -7.2 °C -10.8 °C 34198.6 hPa Calm     66 % 0 mm 0.0 W/m2 CLR
21:27 -7.2 °C -10.8 °C 34198.6 hPa Calm     66 % 0 mm 0.0 W/m2 CLR
21:32 -7.3 °C -10.9 °C 34198.6 hPa Calm     66 % 0 mm 0.0 W/m2 CLR
21:37 -7.3 °C -10.8 °C 34198.6 hPa Calm     67 % 0 mm 0.0 W/m2 CLR
21:42 -7.4 °C -10.9 °C 34212.1 hPa Calm     67 % 0 mm 0.0 W/m2 CLR
21:47 -7.6 °C -10.9 °C 34212.1 hPa Calm     68 % 0 mm 0.0 W/m2 CLR
21:52 -7.7 °C -11 °C 34212.1 hPa Calm     68 % 0 mm 0.0 W/m2 CLR
21:57 -7.8 °C -11 °C 34222.3 hPa Calm     69 % 0 mm 0.0 W/m2 CLR
22:02 -7.8 °C -11.1 °C 34222.3 hPa Calm     69 % 0 mm 0.0 W/m2 CLR
22:07 -7.9 °C -11 °C 34222.3 hPa Calm     70 % 0 mm 0.0 W/m2 CLR
22:12 -7.9 °C -11.1 °C 34222.3 hPa Calm     70 % 0 mm 0.0 W/m2 CLR
22:17 -8 °C -11 °C 34222.3 hPa Calm     71 % 0 mm 0.0 W/m2 CLR
22:22 -8.1 °C -11.1 °C 34222.3 hPa Calm     71 % 0 mm 0.0 W/m2 CLR
22:27 -8.2 °C -11 °C 34235.8 hPa Calm     72 % 0 mm 0.0 W/m2 CLR
22:32 -8.2 °C -11.1 °C 34235.8 hPa Calm     72 % 0 mm 0.0 W/m2 CLR
22:37 -8.3 °C -11.1 °C 34235.8 hPa Calm     73 % 0 mm 0.0 W/m2 CLR
22:42 -8.4 °C -11 °C 34235.8 hPa Calm     74 % 0 mm 0.0 W/m2 CLR
22:47 -8.4 °C -11.1 °C 34235.8 hPa Calm     74 % 0 mm 0.0 W/m2 CLR
22:52 -8.5 °C -11 °C 34235.8 hPa Calm     75 % 0 mm 0.0 W/m2 CLR
22:57 -8.5 °C -11 °C 34235.8 hPa Calm     75 % 0 mm 0.0 W/m2 CLR
23:02 -8.5 °C -11 °C 34235.8 hPa Calm     75 % 0 mm 0.0 W/m2 CLR
23:07 -8.5 °C -11 °C 34235.8 hPa Calm     75 % 0 mm 0.0 W/m2 CLR
23:12 -8.6 °C -11 °C 34235.8 hPa Calm     75 % 0 mm 0.0 W/m2 CLR
23:17 -8.6 °C -11 °C 34246 hPa East 11.9 km/h 11.9 km/h 75 % 0 mm 0.0 W/m2 CLR
23:22 -8.6 °C -10.9 °C 34235.8 hPa Calm     76 % 0 mm 0.0 W/m2 CLR
23:27 -8.6 °C -10.9 °C 34235.8 hPa Calm     76 % 0 mm 0.0 W/m2 CLR
23:33 -8.6 °C -10.9 °C 34235.8 hPa ESE 15.6 km/h 15.6 km/h 76 % 0 mm 0.0 W/m2 CLR
23:38 -8.6 °C -10.9 °C 34222.3 hPa SE 15 km/h 15 km/h 76 % 0 mm 0.0 W/m2 CLR
23:43 -8.7 °C -10.9 °C 34222.3 hPa ESE 9 km/h 9 km/h 77 % 0 mm 0.0 W/m2 CLR
23:48 -8.7 °C -10.9 °C 34222.3 hPa ESE 17.9 km/h 17.9 km/h 77 % 0 mm 0.0 W/m2 CLR
23:53 -8.7 °C -10.9 °C 34222.3 hPa SE 11.9 km/h 11.9 km/h 77 % 0 mm 0.0 W/m2 CLR
23:58 -8.7 °C -10.9 °C 34222.3 hPa SE 15 km/h 15 km/h 77 % 0 mm 0.0 W/m2 CLR
Lo Temps de Massalio
Compliments of Weather Underground - 1.25 mb